Location: Kerberlivit
(48.2787°N, 4.5413°W)
Time: 23:39:14
(UTC+00:00)

ALOS - Pass Details

Date: 18 February 2020
Orbit: 684 x 685 km, 97.8° (Epoch: 09 April)

Event Time Altitude Azimuth Distance (km) Brightness Sun altitude
Rises 05:50:05 0° 11° (NNE) 3,063 5.8 -15.8°
Reaches altitude 10° 05:52:21 10° 10° (N) 2,142 4.9 -15.4°
Maximum altitude 05:57:01 73° 286° (WNW) 720 2.2 -14.6°
Drops below altitude 10° 06:01:39 10° 203° (SSW) 2,125 4.6 -13.8°
Sets 06:03:53 0° 201° (SSW) 3,036 5.4 -13.5°
